Regional Weather Roundup
Issued by NWS Northern Indiana

Home | Current Version | Previous Version | Graphics & Text | Print | Product List | Glossary Off
Versions: 1 2 3 4 5 6 7 8 9 10 11 12 13 14 15 16 17 18 19 20 21 22 23 24 25 26 27 28 29 30 31 32 33 34 35 36 37 38 39 40 41 42 43 44 45 46 47 48 49 50

000
ASUS43 KIWX 011910
RWRIWX

KIWX WEATHER ROUNDUP
NATIONAL WEATHER SERVICE NORTHERN INDIANA
200 PM EST SUN MAR 01 2015

NOTE: "FAIR" INDICATES FEW OR NO CLOUDS BELOW 12,000 FEET WITH NO
SIGNIFICANT WEATHER AND/OR OBSTRUCTIONS TO VISIBILITY.

* THESE STATIONS ARE NOT UNDER NWS QUALITY CONTROL. THEY ALSO MAY NOT
  REPORT WEATHER SUCH AS PRECIPITATION OR FOG.

INZ001>027-012000-
NORTHERN INDIANA

CITY           SKY/WX    TMP DP  RH WIND       PRES   REMARKS
GARY*          LGT SNOW  25  18  74 W6        30.34F WCI  18
VALPARAISO     LGT SNOW  22  18  85 S6        30.31F FOG     WCI  14
MICHIGAN CITY* LGT SNOW  23  14  68 CALM      30.32F
LAPORTE*       LGT SNOW  25  19  79 W3        30.31F VSB 1
KNOX*            N/A     23  12  63 CALM      30.31F
SOUTH BEND     LGT SNOW  24  18  77 CALM      30.31F
ELKHART*       LGT SNOW  23  16  74 CALM      30.31F
GOSHEN         LGT SNOW  21  19  92 NW3       30.29F FOG
MONTICELLO*    CLOUDY    24  21  88 NW5       30.31F FOG     WCI  18
LOGANSPORT*    LGT SNOW  25  23  93 CALM      30.31F
ROCHESTER*     LGT SNOW  30  25  80 CALM      30.30F
WARSAW*        LGT SNOW  25  19  80 CALM      30.29F
ANGOLA*        CLOUDY    21  18  86 NW5       30.27F WCI  15
FORT WAYNE     SNOW      23  20  88 CALM      30.30F VSB 1/2
HUNTINGTON*    LGT SNOW  25  19  77 CALM      30.29F
PERU/GRISSOM   LGT SNOW  25  21  86 SW3       30.29F FOG
MARION*        LGT RAIN  25  21  86 NW3       30.30F

$$
INZ028>050-012000-
CENTRAL INDIANA

CITY           SKY/WX    TMP DP  RH WIND       PRES   REMARKS
LAFAYETTE      LGT SNOW  25  21  85 N5        30.32F FOG     WCI  19
KOKOMO*          N/A     27  23  86 NW5       30.30F WCI  21
MUNCIE*        LGT SNOW  28  24  85 CALM      30.27F FOG
INDIANAPOLIS   LGT SNOW  30  26  85 CALM      30.28F FOG

$$
MIZ043>046-050>051-056>058-064>065-071>073-077>080-012000-
SOUTHWEST LOWER MICHIGAN

CITY           SKY/WX    TMP DP  RH WIND       PRES   REMARKS
BATTLE CREEK   LGT SNOW  23  16  74 SW7       30.27F WCI  15
BENTON HARBOR  CLOUDY    22  18  85 W6        30.31F WCI  14
COLDWATER*     LGT SNOW  23  18  80 W3        30.28F
HILLSDALE*     LGT SNOW  23  18  83 W5        30.25F VSB 1   WCI  17
HOLLAND        CLOUDY    25  18  74 SW12      30.30F WCI  14
GRAND RAPIDS   PTSUNNY   24  15  68 W12       30.28F WCI  13
KALAMAZOO      LGT SNOW  22  16  78 CALM      30.29F
STURGIS*       LGT SNOW  21  18  86 SW3       30.28F
THREE RIVERS*  LGT SNOW  22  16  78 CALM      30.30F

$$
OHZ001>008-015>018-024>025-012000-
NORTHWEST OHIO

CITY           SKY/WX    TMP DP  RH WIND       PRES   REMARKS
WAUSEON*       LGT SNOW  21  18  86 W5        30.28F WCI  15
DEFIANCE       LGT SNOW  24  18  77 NW3       30.30F VSB 1
FINDLAY        LGT SNOW  25  21  85 W5        30.28F FOG     WCI  19
TOLEDO EXPRESS LGT SNOW  22  18  85 W5        30.29F FOG     WCI  16
TOLEDO METCALF LGT SNOW  24  19  81 W6        30.29F VSB 1   WCI  17
LIMA           LGT SNOW  27  22  81 NW6       30.28F WCI  20

$$
AND FOR LAKE MICHIGAN COASTAL AND OPEN LAKE BUOY OBSERVATIONS

STATION/POSITION TEMP    WIND        PRES    VSBY  WAVE
                 AIR SEA DIR/SP/G                  HT/PER
                 (F)     (DEG/KT/KT) (MB)    (MI)  (FT/S)
CALUMET HARBOR    25     240/  4/  6 1025.7F
MICHIGAN CITY     25     290/  1/  2   N/A
SAINT JOSEPH      24     180/  7/  8 1027.1F

$$
&&


USA.gov is the U.S. government's official web portal to all federal, state and local government web resources and services.